Regional Weather Roundup
Issued by NWS

Home | Current Version | Previous Version | Text Only | Print | Product List | Glossary Off
Versions: 1 2 3 4 5 6 7 8 9 10 11 12 13 14 15 16 17 18 19 20 21 22 23 24 25 26 27 28 29 30 31 32 33 34 35 36 37 38 39 40 41 42 43 44 45 46 47 48 49 50

286
ASUS45 KBOU 282107
RWRCO

WEATHER ROUNDUP FOR COLORADO
NATIONAL WEATHER SERVICE DENVER/BOULDER CO
300 PM MDT TUE MAR 28 2017

NOTE: "FAIR" INDICATES FEW OR NO CLOUDS BELOW 12000 FEET WITH NO
SIGNIFICANT WEATHER AND/OR OBSTRUCTIONS TO VISIBILITY.

COZ001>005-013-030-031-282200-
...NORTHWEST COLORADO...

CITY           SKY/WX    TMP DP  RH WIND       PRES   REMARKS
CRAIG          LGT RAIN  43  37  79 CALM      29.93S
HAYDEN         FAIR      41  34  75 W9        29.92S
MEEKER         LGT RAIN  40  38  93 E8        29.93S
MOUNT WERNER   NOT AVBL
STEAMBOAT SPGS CLOUDY    37  35  92 SE5       29.91S
WALDEN         NOT AVBL
$$

COZ006>008-011-282200-
...WEST CENTRAL VALLEYS...

CITY           SKY/WX    TMP DP  RH WIND       PRES   REMARKS
GRAND JUNCTION LGT RAIN  50  41  71 W7        29.90F
MONTROSE       CLOUDY    47  39  74 NW16      29.89F
EAGLE          CLOUDY    46  36  66 W12       29.87S
RIFLE          LGT RAIN  48  37  65 W15       29.89S
DELTA          CLOUDY    54  40  60 CALM      29.85F
NUCLA          CLOUDY    50  39  66 NW18G25   29.90S
$$

COZ017>023-064>068-282200-
...SOUTHWEST COLORADO...

CITY           SKY/WX    TMP DP  RH WIND       PRES   REMARKS
DURANGO        FAIR      50  32  50 SW13      29.78F
CORTEZ         CLOUDY    50  39  66 W18G25    29.81F
PAGOSA SPRINGS TSTM      41  32  68 NE3G16    29.83R
TELLURIDE      CLOUDY    38  30  71 N3        29.89S
WOLF CREEK PAS CLOUDY    27  21  80 N7        29.94S WCI  19
$$

COZ009-010-012-014-032>034-037-058>063-282200-
...CENTRAL COLORADO...

CITY           SKY/WX    TMP DP  RH WIND       PRES   REMARKS
ASPEN          LGT RAIN  41  35  79 N16G23    29.85S
BUENA VISTA    CLOUDY    47  26  44 E13       29.80R
COPPER MTN     SNOW      30  27  86 CALM      29.93F VSB 1/4
BERTHOUD PASS  HAZE      21  10  63 E8        29.95S VSB 1   WCI  12
COTTONWOOD PAS CLOUDY    45  19  36 CALM      29.85S
GUNNISON       FAIR      41  33  73 SW12      29.83F
KREMMLING      LGT RAIN  43  36  75 N9        29.89R
LEADVILLE      CLOUDY    35  24  64 N14G23    29.85S WCI  26
MONARCH PASS   FLURRIES  28  27  93 N7        30.01S WCI  21
SALIDA         FAIR      51  27  39 SE10      29.85F
SUNLIGHT       SNOW      28  27  93 W8        29.98S VSB<1/4 WCI  20
WILKERSON PASS HVY SNOW  28  27  93 E10G17    29.93F VSB<1/4 WCI  19
$$

COZ069>075-282200-
...SAN LUIS VALLEY/SANGRE DE CRISTO MOUNTAINS...

CITY           SKY/WX    TMP DP  RH WIND       PRES   REMARKS
ALAMOSA        FAIR      52  17  25 CALM      29.74F
LA VETA PASS   NOT AVBL
SAGUACHE       CLOUDY    48  28  46 N17G24    29.78S
$$

COZ035-036-038>040-282200-
...NORTHERN COLORADO FRONT RANGE...

CITY           SKY/WX    TMP DP  RH WIND       PRES   REMARKS
DENVER INTL AP CLOUDY    45  40  82 N20       29.86S
DMNS CITY PARK   N/A     43  42  97 N7G15     29.87S
AURORA         DRIZZLE   42  42 100 NW16      29.87S FOG
FRONT RANGE AP CLOUDY    48  43  81 NW17      29.86S
ERIE MUNI ARPT LGT RAIN  45  40  84 N15       29.89S
BOULDER MUN AP RAIN      43  41  93 N7        29.89S
CENTENNIAL     CLOUDY    42  40  92 N13       29.87S FOG
BROOMFIELD     DRIZZLE   43  39  87 N17       29.89R
FORT COLLINS   RAIN      45  42  89 N14       29.90S
LONGMONT       DRIZZLE   47  39  73 N16G22    29.90S
$$

COZ041-046-047-076>085-087-088-282200-
...PIKES PEAK/PALMER DIVIDE AND SOUTHERN FOOTHILLS...

CITY           SKY/WX    TMP DP  RH WIND       PRES   REMARKS
COLO. SPRINGS  LGT RAIN  45  36  70 N23       29.84S
A. F. ACADEMY  CLOUDY    42  37  79 N17       29.85S
SCHRIEVER AFB  PTSUNNY   45  41  87 N15       29.84
ELLICOTT       MIX PCPN N/A N/A N/A NE17      29.82F
FALCON         CLOUDY    45  36  70 N17       29.86S
FORT CARSON    NOT AVBL
LIMON          LGT RAIN  44  43  96 E6        29.85S FOG
MONUMENT HILL  FOG       36  36 100 N13       29.88F VSB 1/4
TRINIDAD       PTSUNNY   55  37  50 NE12      29.76S
$$

COZ042>045-048>051-090-091-282200-
...NORTHEAST COLORADO...

CITY           SKY/WX    TMP DP  RH WIND       PRES   REMARKS
GREELEY ARPT   CLOUDY    46  42  86 NE13      29.89S
AKRON          LGT RAIN  45  43  93 SE18G25   29.86S
BURLINGTON     RAIN      45  44  97 SE18      29.91R FOG
WRAY           NOT AVBL
STERLING       LGT RAIN  46  45  93 SE15      29.86F
HOLYOKE        LGT RAIN  46  43  87 E21       29.93S
FORT MORGAN    RAIN      47  45  91 E3        29.87R
$$

COZ086-089-092>099-282200-
...SOUTHEAST COLORADO...

CITY           SKY/WX    TMP DP  RH WIND       PRES   REMARKS
PUEBLO         FAIR      58  42  55 E13G22    29.77S
LA JUNTA       CLOUDY    51  46  83 E18       29.80R
LAMAR          CLOUDY    47  44  90 E17G24    29.82F
SPRINGFIELD      N/A     44  43  96 E14       29.81R
$$




USA.gov is the U.S. government's official web portal to all federal, state and local government web resources and services.